User: anonymous
Location: Caltech
(34.1382°N, 118.1253°W)
Time: 09:00:35
(UTC-07:00)
Language:

Cosmos 1939 - Orbit

View from above orbital plane
View from above orbital plane
View from above satellite
View from above satellite

Ground track
Ground track

The orbit data is extracted from the following two-line orbital elements,

1 19045U 88032A   14105.82601021  .00059743  00000-0  67559-3 0  7903
2 19045 097.2255 171.3708 0002012 311.6110 184.6055 15.62265973430761
Epoch (UTC): 15 April 2014 19:49:27
Eccentricity: 0.0002012
inclination: 97.2255°
perigee height: 380 km
apogee height: 382 km
right ascension of ascending node: 171.3708°
argument of perigee: 311.6110°
revolutions per day: 15.62265973
mean anomaly at epoch: 184.6055°
orbit number at epoch: 43076

The dashed part of the orbit path shows where the satellite is in the earth's shadow,  

DLR